Back to catalog

FALCON 9 R/B

AliveHEO
NORAD 37253·ROCKET BODY·🇺🇸 United States

Launched Dec 8, 2010 from Cape Canaveral Space Force Station

Loading…

Next Passes (next 24 hours)

TLE

FreshSource: Space-Track

Epoch: Sep 14, 2026, 04:11 UTC

1 37253U 10066K   26257.17431695  .00004529  00000-0  38913-3 0  9998
2 37253  34.5170 160.3513 4009855 238.9711  75.6310  7.38747667399225

Track FALCON 9 R/B in real time with AllMySat

Download on the App Store